CZ-6A DEB, 54922

Orbit data source: Space-Track

CZ-6A DEB, 54922 is space debris in SSO originally from a launch on Fri, 11 Nov 2022 UTC launched from the Taiyaun Space Center, China (TSC). Debris objects in space refer to the collection of defunct objects orbiting the Earth. Examples of debris include non-operational satellites, rocket bodies, and fragments generated from explosions, collisions, or faulty payload assembly.

Loading next visibility...
Identifier
54922, 2022-151RK
Orbit
SSO
Country
Flag of CNCN / PRC
Related business
Manufacturer
SAST
Mission
Spacecraft
Bus & Motor
Unknown
Mass
Unknown
Launch date (UTC)
2022-11-11 (3 years ago)
Launch vehicle
Unknown
Launch site
Taiyaun Space Center, China (TSC)
Object type
Payload
Rocket body
Debris
Shape & HBR
Unknown shape, 0.1 m
Radar Cross Section
Small (<0.1 m²)

Expand to show TLE details & history
Last TLE update: 14 hours ago

TLE from 14 hours ago
0 CZ-6A DEB
1 54922U 22151RK  25352.13033621  .00033699  00000-0  34276-2 0  9993
2 54922  98.6422  54.2495 0041844  89.9751 270.6259 14.90019933161103
Epoch: 2025-12-18T03:07Z
TLE epoch observation values (Epoch: 2025-12-18T03:07:41.048Z)
Latitude
-0.00003°
Longitude
-79.66179°
Altitude
600.689 km
Speed
7.559 km/s
True Right ascension
03h 36m 59s
True Declination
0° 00' 00"
Sunlit
Object was in full shadow at epoch
Visualization orbit readout
Latitude
Unknown
Longitude
Unknown
Altitude
Unknown
Speed
Unknown
Apparent Right ascension
Unknown
Apparent Declination
Unknown
Sunlit
N/A
Visualization observer readout
Local Sidereal Time
16:17:38
Azimuth
Unknown
Elevation
Unknown
Doppler factor
Unknown
Orbital elements
Apogee altitude
624.114 km
Perigee altitude
565.758 km
Semi-major axis
6,973.073 km
Eccentricity
0.00418
Inclination
98.6422°
RAAN
54.2495°
Arg. of periapsis
89.9751°
True anomaly
270.14641°
Mean anomaly
270.6259°
Eccentric anomaly
270.38616°
Mean motion
3.72741 °/min
Orbital period
96.58 mins
BSTAR
0.0034276
Loading maneuver chart data...
Computing Atmospheric mass density...
Loading historical data...
Loading historical data...
Loading historical data...
Loading historical data...
Loading historical data...
Loading historical data...
Loading historical data...

Documentation

Showing up to 5 results
|